When you browse on this site, cookies collect data to enhance your experience and personalize the content and advertising you see.
Visit our Privacy Policy to learn more. By continuing to use the site, you agree to this use of cookies and data.
  • In Czech Republic
  • List of Countries
  • For 7 days
  • Water Temperature
  • Satellite Maps
  • Weather Map
  • Weather Widgets
  • user-avatar
    Login

    Hourly Weather Prutz

    Today, 17 December, Monday

    Time Temperature Precipitation Wind Pressure Humidity
    00:00 -4°C° 0 mm 1 mps 628 mmHg 90%
    01:00 -6°C° 0 mm 1 mps 628 mmHg 90%
    02:00 -6°C° 0 mm 1 mps 628 mmHg 89%
    03:00 -6°C° 0 mm 1 mps 629 mmHg 89%
    04:00 -6°C° 0 mm 1 mps 629 mmHg 89%
    05:00 -6°C° 0 mm 1 mps 629 mmHg 89%
    06:00 -7°C° 0 mm 1 mps 629 mmHg 90%
    07:00 -7°C° 0 mm 1 mps 629 mmHg 90%
    08:00 -6°C° 0 mm 1 mps 630 mmHg 89%
    09:00 -4°C° 0 mm 1 mps 631 mmHg 88%
    10:00 -3°C° 0 mm 1 mps 632 mmHg 88%
    11:00 -4°C° 0 mm 2 mps 632 mmHg 87%
    12:00 -3°C° 0 mm 2 mps 633 mmHg 86%
    13:00 -2°C° 0 mm 2 mps 633 mmHg 85%
    14:00 -2°C° 0 mm 2 mps 633 mmHg 87%
    15:00 -3°C° 0 mm 2 mps 634 mmHg 89%
    16:00 -4°C° 0 mm 2 mps 634 mmHg 91%
    17:00 -4°C° 0.1 mm 2 mps 634 mmHg 92%
    18:00 -5°C° 0.1 mm 2 mps 635 mmHg 92%
    19:00 -5°C° 0.1 mm 2 mps 635 mmHg 93%
    20:00 -4°C° 0.1 mm 1 mps 636 mmHg 93%
    21:00 -4°C° 0.1 mm 1 mps 636 mmHg 93%
    22:00 -4°C° 0.1 mm 1 mps 636 mmHg 93%
    23:00 -6°C° 0 mm 1 mps 636 mmHg 93%

    Tomorrow, 18 December, Tuesday

    Time Temperature Precipitation Wind Pressure Humidity
    00:00 -6°C° 0 mm 1 mps 636 mmHg 92%
    01:00 -7°C° 0 mm 1 mps 636 mmHg 92%
    02:00 -7°C° 0 mm 1 mps 636 mmHg 89%
    03:00 -8°C° 0 mm 1 mps 635 mmHg 86%
    04:00 -8°C° 0 mm 1 mps 635 mmHg 83%
    05:00 -8°C° 0 mm 1 mps 635 mmHg 77%
    06:00 -9°C° 0 mm 2 mps 635 mmHg 71%
    07:00 -9°C° 0 mm 2 mps 635 mmHg 65%
    08:00 -8°C° 0 mm 2 mps 635 mmHg 63%
    09:00 -6°C° 0 mm 2 mps 636 mmHg 62%
    10:00 -5°C° 0 mm 2 mps 636 mmHg 60%
    11:00 -3°C° 0 mm 2 mps 636 mmHg 63%
    12:00 -2°C° 0 mm 2 mps 636 mmHg 65%
    13:00 +1°C° 0 mm 2 mps 636 mmHg 68%
    14:00 -2°C° 0 mm 2 mps 635 mmHg 69%
    15:00 -3°C° 0 mm 2 mps 635 mmHg 69%
    16:00 -4°C° 0 mm 2 mps 634 mmHg 70%
    17:00 -5°C° 0 mm 2 mps 634 mmHg 68%
    18:00 -7°C° 0 mm 3 mps 633 mmHg 66%
    19:00 -7°C° 0 mm 3 mps 633 mmHg 63%
    20:00 -7°C° 0 mm 3 mps 633 mmHg 61%
    21:00 -7°C° 0 mm 3 mps 633 mmHg 59%
    22:00 -7°C° 0 mm 3 mps 633 mmHg 57%
    23:00 -7°C° 0 mm 3 mps 632 mmHg 56%

    Day after tomorrow, 19 December, Wednesday

    Time Temperature Precipitation Wind Pressure Humidity
    00:00 -7°C° 0 mm 3 mps 632 mmHg 55%
    01:00 -6°C° 0 mm 3 mps 632 mmHg 55%
    02:00 -6°C° 0 mm 3 mps 632 mmHg 54%
    03:00 -5°C° 0 mm 2 mps 632 mmHg 54%
    04:00 -5°C° 0 mm 2 mps 632 mmHg 54%
    05:00 -4°C° 0 mm 2 mps 632 mmHg 55%
    06:00 -4°C° 0 mm 2 mps 632 mmHg 56%
    07:00 -4°C° 0 mm 2 mps 632 mmHg 56%
    08:00 -3°C° 0 mm 2 mps 632 mmHg 59%
    09:00 -2°C° 0 mm 2 mps 632 mmHg 61%
    10:00 0°C° 0 mm 1 mps 633 mmHg 64%
    11:00 +1°C° 0 mm 1 mps 632 mmHg 67%
    12:00 +2°C° 0 mm 1 mps 632 mmHg 70%
    13:00 +3°C° 0 mm 1 mps 632 mmHg 73%
    14:00 +1°C° 0 mm 2 mps 631 mmHg 75%
    15:00 -1°C° 0 mm 2 mps 631 mmHg 77%
    16:00 -2°C° 0 mm 2 mps 630 mmHg 80%
    17:00 -3°C° 0.1 mm 2 mps 630 mmHg 82%
    18:00 -3°C° 0.1 mm 2 mps 630 mmHg 84%
    19:00 -4°C° 0.1 mm 2 mps 630 mmHg 86%
    20:00 -4°C° 0.2 mm 2 mps 630 mmHg 88%
    21:00 -4°C° 0.2 mm 2 mps 630 mmHg 89%
    22:00 -4°C° 0.2 mm 2 mps 630 mmHg 90%
    23:00 -2°C° 0.8 mm 1 mps 630 mmHg 92%

    20 December, Thursday

    Time Temperature Precipitation Wind Pressure Humidity
    00:00 -2°C° 0.8 mm 1 mps 630 mmHg 94%
    01:00 -1°C° 0.8 mm 1 mps 630 mmHg 95%
    02:00 -1°C° 1 mm 1 mps 630 mmHg 95%
    03:00 -1°C° 1 mm 1 mps 630 mmHg 96%
    04:00 -1°C° 1 mm 1 mps 630 mmHg 96%
    05:00 -1°C° 0.9 mm 1 mps 630 mmHg 96%
    06:00 -1°C° 0.9 mm 1 mps 630 mmHg 96%
    07:00 -3°C° 0.9 mm 2 mps 630 mmHg 96%
    08:00 -3°C° 0.4 mm 2 mps 630 mmHg 95%
    09:00 -3°C° 0.4 mm 2 mps 631 mmHg 95%
    10:00 -3°C° 0.4 mm 2 mps 631 mmHg 94%
    11:00 -3°C° 0.3 mm 2 mps 631 mmHg 93%
    12:00 -3°C° 0.3 mm 2 mps 631 mmHg 92%
    13:00 -2°C° 0.3 mm 2 mps 631 mmHg 91%
    14:00 -3°C° 0.2 mm 2 mps 631 mmHg 92%
    15:00 -3°C° 0.2 mm 2 mps 631 mmHg 92%
    16:00 -4°C° 0.2 mm 2 mps 631 mmHg 93%
    17:00 -5°C° 0 mm 2 mps 631 mmHg 92%
    18:00 -6°C° 0 mm 2 mps 631 mmHg 91%
    19:00 -6°C° 0 mm 1 mps 631 mmHg 90%
    20:00 -7°C° 0 mm 2 mps 631 mmHg 88%
    21:00 -7°C° 0 mm 2 mps 631 mmHg 85%
    22:00 -7°C° 0 mm 2 mps 632 mmHg 82%
    23:00 -8°C° 0 mm 2 mps 632 mmHg 81%

    21 December, Friday

    Time Temperature Precipitation Wind Pressure Humidity
    00:00 -8°C° 0 mm 2 mps 632 mmHg 81%
    01:00 -8°C° 0 mm 2 mps 632 mmHg 80%
    02:00 -8°C° 0 mm 2 mps 632 mmHg 80%
    03:00 -8°C° 0 mm 2 mps 632 mmHg 80%
    04:00 -8°C° 0 mm 2 mps 632 mmHg 80%
    05:00 -8°C° 0 mm 2 mps 632 mmHg 79%
    06:00 -8°C° 0 mm 2 mps 633 mmHg 79%
    07:00 -7°C° 0 mm 2 mps 633 mmHg 78%
    08:00 -6°C° 0 mm 2 mps 633 mmHg 77%
    09:00 -5°C° 0 mm 2 mps 634 mmHg 77%
    10:00 -4°C° 0 mm 2 mps 634 mmHg 77%
    11:00 -3°C° 0 mm 2 mps 634 mmHg 75%
    12:00 -2°C° 0 mm 2 mps 634 mmHg 73%
    13:00 +1°C° 0 mm 2 mps 634 mmHg 71%
    14:00 -1°C° 0 mm 2 mps 633 mmHg 73%
    15:00 -1°C° 0 mm 2 mps 633 mmHg 75%
    16:00 -2°C° 0 mm 2 mps 633 mmHg 77%
    17:00 -2°C° 0.2 mm 2 mps 633 mmHg 78%
    18:00 -2°C° 0.2 mm 2 mps 633 mmHg 79%
    19:00 -2°C° 0.2 mm 3 mps 633 mmHg 80%
    20:00 -2°C° 0.4 mm 3 mps 633 mmHg 81%
    21:00 -2°C° 0.4 mm 3 mps 633 mmHg 83%
    22:00 -2°C° 0.4 mm 3 mps 633 mmHg 84%
    23:00 -1°C° 0.8 mm 3 mps 633 mmHg 85%

    22 December, Saturday

    Time Temperature Precipitation Wind Pressure Humidity
    00:00 -1°C° 0.8 mm 2 mps 633 mmHg 86%
    01:00 -1°C° 0.8 mm 2 mps 633 mmHg 88%
    02:00 -1°C° 0.2 mm 2 mps 633 mmHg 88%
    03:00 -1°C° 0.2 mm 2 mps 633 mmHg 89%
    04:00 -1°C° 0.2 mm 2 mps 633 mmHg 89%
    05:00 -1°C° 0.1 mm 2 mps 634 mmHg 91%
    06:00 -1°C° 0.1 mm 2 mps 634 mmHg 92%
    07:00 -1°C° 0.1 mm 2 mps 634 mmHg 93%
    08:00 +1°C° 0 mm 2 mps 635 mmHg 94%
    09:00 +1°C° 0 mm 2 mps 635 mmHg 94%
    10:00 +2°C° 0 mm 2 mps 636 mmHg 94%
    11:00 +2°C° 0 mm 2 mps 636 mmHg 94%
    12:00 +3°C° 0 mm 2 mps 636 mmHg 94%
    13:00 +3°C° 0 mm 2 mps 636 mmHg 95%
    14:00 +2°C° 0 mm 2 mps 636 mmHg 92%
    15:00 +2°C° 0 mm 2 mps 636 mmHg 90%
    16:00 +1°C° 0 mm 2 mps 636 mmHg 88%
    17:00 +1°C° 0.2 mm 2 mps 636 mmHg 86%
    18:00 +1°C° 0.2 mm 2 mps 636 mmHg 85%
    19:00 +1°C° 0.2 mm 2 mps 636 mmHg 83%
    20:00 +1°C° 0.8 mm 2 mps 637 mmHg 86%
    21:00 +1°C° 0.8 mm 2 mps 637 mmHg 88%
    22:00 +1°C° 0.8 mm 2 mps 637 mmHg 91%
    23:00 +1°C° 0.8 mm 2 mps 637 mmHg 92%
    Show more